Location: Sungai Dangang
(2.7500°N, 113.8333°E)
Time: 19:07:12
(UTC+00:00)

Ariane H10+ - Pass Details

Date: 30 September 2021
Orbit: 237 x 7755 km, 6.8° (Epoch: 21 October)

Event Time Altitude Azimuth Distance (km) Brightness Sun altitude
Exits shadow 21:09:25 18° 259° (W) 4,843 5.5 -16.4°
Maximum altitude 21:27:16 85° 171° (S) 5,135 6.1 -11.9°
Drops below altitude 10° 22:26:07 10° 84° (E) 11,311 10.2 2.8°
Sets 22:36:09 0° 84° (E) 11,824 10.3 5.3°
